Location: *
(50.5492°N, 7.7469°E)
Time: 01:27:43
(UTC+00:00)

CENTAUR R/B - Pass Details

Date: 21 October 2019
Orbit: 781 x 1407 km, 63.4° (Epoch: 10 November)

Event Time Altitude Azimuth Distance (km) Brightness Sun altitude
Rises 20:24:00 0° 241° (WSW) 3,534 5.7 -37.3°
Reaches altitude 10° 20:26:25 10° 246° (WSW) 2,670 5.1 -37.6°
Enters shadow 20:29:56 35° 264° (W) 1,581 3.8 -38.1°
